Monett, MO

2:55 AM CST on November 20, 2019 (GMT -0600)
Monett

Weather History for KHFJ - September, 2019

Change the Weather History Date:

Sunday, September 22, 2019

  Actual Average (KJLN) Record (KJLN)
Temperature  
Mean Temperature 72 °F -  
Max Temperature 75 °F 76 °F 95 °F (1956)
Min Temperature 69 °F 56 °F 33 °F (1995)
Cooling Degree Days 7    
Growing Degree Days 22 (Base 50)    
Moisture  
Dew Point 69 °F    
Average Humidity 88    
Maximum Humidity 100    
Minimum Humidity 73    
Precipitation  
Precipitation 0.32 in - - ()
Sea Level Pressure  
Sea Level Pressure 29.99 in    
Wind  
Wind Speed 11 mph ()    
Max Wind Speed 20 mph    
Max Gust Speed 28 mph    
Visibility 9.6 miles    
Events Rain    
Averages and records for this station are not official NWS values.
T = Trace of Precipitation, MM = Missing Value Source: Averaged Metar Reports

Daily Weather History Graph

Daily Weather History Graph

Search for Another Location

Airport or City:

Astronomy

Sep. 22, 2019 Rise Set
Actual Time 7:03 AM CDT 7:13 PM CDT
Civil Twilight 6:37 AM CDT 7:39 PM CDT
Nautical Twilight 6:07 AM CDT 8:09 PM CDT
Astronomical Twilight 5:36 AM CDT 8:39 PM CDT
Moon 12:02 AM CDT (9/22) 3:00 PM CDT (9/22)
Length of Visible Light 13h 01m
Length of Day
12h 09m
Last Quarter, 44% of the Moon is Illuminated
Sep 22
Last Quarter
Sep 28
New
Oct 5
First Quarter
Oct 13
Full
Oct 21
Last Quarter

Hourly Weather History & Observations

Time (CDT) Temp. Dew Point Humidity Pressure Visibility Wind Dir Wind Speed Gust Speed Precip Events Conditions
12:15 AM 73.4 °F 66.2 °F 78% 30.01 in 10.0 mi SSE 11.5 mph - N/A   Clear
12:35 AM 71.6 °F 66.2 °F 83% 30.01 in 10.0 mi SSE 9.2 mph 16.1 mph N/A   Clear
12:55 AM 71.6 °F 66.2 °F 83% 30.02 in 10.0 mi SSE 9.2 mph - N/A   Clear
1:15 AM 71.6 °F 66.2 °F 83% 30.02 in 10.0 mi SSE 10.4 mph - N/A   Clear
1:35 AM 71.6 °F 66.2 °F 83% 30.01 in 10.0 mi SSE 11.5 mph - N/A   Clear
1:55 AM 71.6 °F 66.2 °F 83% 30.01 in 10.0 mi SSE 8.1 mph - N/A   Clear
2:15 AM 71.6 °F 66.2 °F 83% 30.00 in 10.0 mi South 10.4 mph - N/A   Clear
2:35 AM 71.6 °F 64.4 °F 78% 30.00 in 10.0 mi South 11.5 mph 16.1 mph N/A   Clear
2:55 AM 71.6 °F 64.4 °F 78% 30.00 in 10.0 mi South 10.4 mph 17.3 mph N/A   Clear
3:15 AM 71.6 °F 64.4 °F 78% 30.01 in 10.0 mi South 11.5 mph - N/A   Clear
3:35 AM 71.6 °F 64.4 °F 78% 30.00 in 10.0 mi South 11.5 mph - N/A   Clear
3:55 AM 71.6 °F 64.4 °F 78% 30.00 in 10.0 mi South 8.1 mph - N/A   Clear
4:15 AM 71.6 °F 64.4 °F 78% 30.00 in 10.0 mi SSE 8.1 mph - N/A   Clear
4:35 AM 71.6 °F 64.4 °F 78% 30.00 in 10.0 mi South 9.2 mph - N/A   Clear
4:55 AM 71.6 °F 64.4 °F 78% 29.99 in 10.0 mi South 10.4 mph - N/A   Clear
5:15 AM 71.6 °F 64.4 °F 78% 29.99 in 10.0 mi South 11.5 mph 16.1 mph N/A   Clear
5:35 AM 71.6 °F 64.4 °F 78% 29.99 in 10.0 mi South 11.5 mph - N/A   Clear
5:55 AM 71.6 °F 66.2 °F 83% 29.98 in 10.0 mi South 12.7 mph - N/A   Clear
6:15 AM 71.6 °F 66.2 °F 83% 29.98 in 10.0 mi South 12.7 mph 17.3 mph N/A   Clear
6:35 AM 71.6 °F 66.2 °F 83% 29.98 in 10.0 mi South 12.7 mph 18.4 mph N/A   Clear
6:55 AM 71.6 °F 66.2 °F 83% 29.97 in 10.0 mi South 13.8 mph - N/A   Clear
7:15 AM 73.4 °F 66.2 °F 78% 29.97 in 10.0 mi South 15.0 mph 20.7 mph N/A   Clear
7:35 AM 73.4 °F 68.0 °F 83% 29.97 in 10.0 mi South 17.3 mph 21.9 mph N/A   Clear
8:15 AM 73.4 °F 68.0 °F 83% 29.98 in 10.0 mi South 15.0 mph 24.2 mph N/A   Scattered Clouds
8:35 AM 73.4 °F 68.0 °F 83% 29.99 in 10.0 mi South 15.0 mph 21.9 mph N/A   Mostly Cloudy
8:55 AM 73.4 °F 68.0 °F 83% 29.98 in 10.0 mi South 18.4 mph 25.3 mph N/A   Mostly Cloudy
9:15 AM 73.4 °F 68.0 °F 83% 29.98 in 10.0 mi South 19.6 mph 24.2 mph N/A   Scattered Clouds
9:35 AM 75.2 °F 68.0 °F 78% 29.99 in 10.0 mi South 19.6 mph 26.5 mph N/A   Scattered Clouds
9:55 AM 75.2 °F 68.0 °F 78% 29.99 in 10.0 mi SSW 19.6 mph 24.2 mph N/A   Scattered Clouds
10:35 AM 75.2 °F 66.2 °F 73% 30.00 in 10.0 mi SSW 15.0 mph 25.3 mph N/A   Overcast
10:55 AM 75.2 °F 66.2 °F 73% 30.00 in 10.0 mi SSW 16.1 mph 19.6 mph N/A   Overcast
11:15 AM 73.4 °F 68.0 °F 83% 30.00 in 7.0 mi SSW 15.0 mph 23.0 mph N/A   Light Drizzle
11:35 AM 73.4 °F 68.0 °F 83% 30.00 in 7.0 mi SSW 15.0 mph - N/A Rain Heavy Rain
11:55 AM 71.6 °F 69.8 °F 94% 29.99 in 7.0 mi South 15.0 mph 21.9 mph 0.02 in Rain Light Rain
12:15 PM 71.6 °F 69.8 °F 94% 29.99 in 10.0 mi South 11.5 mph - N/A   Overcast
12:55 PM 69.8 °F 69.8 °F 100% 30.00 in 2.0 mi SSW 9.2 mph - 0.24 in Rain Rain
1:15 PM 69.8 °F 69.8 °F 100% 29.99 in 5.0 mi SSW 10.4 mph - 0.03 in   Drizzle
1:35 PM 71.6 °F 71.6 °F 100% 29.99 in 7.0 mi South 11.5 mph - 0.03 in Rain Light Rain
1:55 PM 71.6 °F 69.8 °F 94% 29.98 in 10.0 mi South 15.0 mph 19.6 mph 0.03 in   Overcast
2:15 PM 71.6 °F 69.8 °F 94% 29.97 in 10.0 mi South 13.8 mph 19.6 mph N/A   Overcast
2:35 PM 73.4 °F 71.6 °F 94% 29.97 in 10.0 mi South 16.1 mph 21.9 mph N/A   Mostly Cloudy
2:55 PM 73.4 °F 71.6 °F 94% 29.96 in 10.0 mi SSW 16.1 mph 27.6 mph N/A   Mostly Cloudy
3:15 PM 73.4 °F 69.8 °F 88% 29.96 in 10.0 mi SSW 16.1 mph 21.9 mph N/A   Overcast
3:35 PM 73.4 °F 71.6 °F 94% 29.96 in 10.0 mi South 12.7 mph 19.6 mph N/A   Overcast
3:55 PM 73.4 °F 71.6 °F 94% 29.96 in 10.0 mi South 15.0 mph - N/A   Overcast
4:15 PM 73.4 °F 71.6 °F 94% 29.96 in 10.0 mi South 12.7 mph - N/A   Overcast
4:35 PM 73.4 °F 69.8 °F 88% 29.95 in 10.0 mi South 18.4 mph 24.2 mph N/A Rain Rain
4:55 PM 71.6 °F 71.6 °F 100% 29.96 in 5.0 mi South 16.1 mph - 0.03 in Rain Light Rain
5:15 PM 73.4 °F 71.6 °F 94% 29.96 in 10.0 mi SSW 11.5 mph - N/A Rain Light Rain
5:35 PM 73.4 °F 71.6 °F 94% 29.96 in 10.0 mi South 12.7 mph 17.3 mph N/A   Overcast
5:55 PM 73.4 °F 71.6 °F 94% 29.96 in 10.0 mi South 10.4 mph 18.4 mph N/A   Overcast
6:15 PM 73.4 °F 71.6 °F 94% 29.96 in 10.0 mi South 9.2 mph - N/A   Overcast
6:35 PM 73.4 °F 71.6 °F 94% 29.96 in 10.0 mi South 12.7 mph - N/A   Mostly Cloudy
6:55 PM 73.4 °F 71.6 °F 94% 29.96 in 10.0 mi SSW 12.7 mph - N/A   Scattered Clouds
7:15 PM 73.4 °F 71.6 °F 94% 29.96 in 10.0 mi South 10.4 mph - N/A   Scattered Clouds
7:35 PM 71.6 °F 71.6 °F 100% 29.96 in 10.0 mi South 10.4 mph - N/A   Clear
7:55 PM 71.6 °F 71.6 °F 100% 29.97 in 10.0 mi South 8.1 mph - N/A   Clear
8:15 PM 71.6 °F 71.6 °F 100% 29.99 in 10.0 mi South 5.8 mph - N/A   Clear
8:35 PM 71.6 °F 71.6 °F 100% 29.99 in 10.0 mi South 5.8 mph - N/A   Mostly Cloudy
8:55 PM 71.6 °F 71.6 °F 100% 30.00 in 10.0 mi SSW 4.6 mph - N/A   Overcast
9:15 PM 71.6 °F 71.6 °F 100% 30.00 in 10.0 mi South 5.8 mph - N/A   Overcast
9:35 PM 71.6 °F 71.6 °F 100% 30.01 in 10.0 mi South 8.1 mph - N/A   Overcast
9:55 PM 73.4 °F 71.6 °F 94% 30.01 in 10.0 mi South 9.2 mph - N/A   Overcast
10:15 PM 73.4 °F 71.6 °F 94% 30.01 in 10.0 mi South 8.1 mph - N/A   Overcast
10:35 PM 73.4 °F 71.6 °F 94% 30.01 in 10.0 mi South 8.1 mph - N/A   Overcast
10:55 PM 71.6 °F 71.6 °F 100% 30.02 in 10.0 mi South 8.1 mph - N/A   Mostly Cloudy
11:15 PM 71.6 °F 71.6 °F 100% 30.02 in 10.0 mi SSW 8.1 mph - N/A   Mostly Cloudy
11:35 PM 71.6 °F 71.6 °F 100% 30.02 in 10.0 mi SSW 5.8 mph - N/A   Mostly Cloudy